7 * 24
多渠道服务支持
STARLINK-36282(NORAD编号100473)是SpaceX星链(Starlink)低轨互联网星座的组网卫星之一,由SpaceX基于星链标准卫星平台研制,主要承担全球高速宽带互联网接入服务任务。该卫星于近年通过猎鹰9号火箭发射入轨,运行于约550千米高度的近地轨道,设计寿命约5年,搭载相控阵天线与霍尔推力器,支持星地/星间数据传输,可面向偏远地区、移动场景提供低时延高速网络服务,在轨状态接受北美防空司令部持续轨道跟踪与碰撞预警监测,服务于星链全球星座容量扩展目标。截至2026年9月,该卫星处于正常在轨服役状态。
美国
(US)
| 数据来源 | 国际轨道数据 |
| 星历时间: | 2026-09-05T06:00:04+0800 8小时前 查看轨道信息 |
| 半长轴: | 6671.623km |
| 偏心率: | 0.0000597 |
| 轨道倾角: | 53.160° |
| 近地点辐角 | 180.747° |
| 升交点赤经 | 319.612° |
| 平近点角 | 179.355° |
| 近地点: | 293.087km |
| 远地点: | 293.885km |
| 周期: | 90.387分钟 |
| 每日圈数: | 15.931459 |